KD2RHT-13 Weather Reports


Display with metric or nautical units.
time (UTC)temp
F
wind
direction
speed
MPH
gust
MPH
rain 1hr
in
rain 24hr
in
rain mn
in
humidity
%
barometer
mb
20260906205525 72 199 3.0 3.0 0.00 0.00 0.00 70 1019.3
20260906205022 73 115 3.0 5.0 0.00 0.00 0.00 69 1019.3
20260906204520 72 166 1.0 1.0 0.00 0.00 0.00 69 1019.3
20260906204015 72 226 0.0 1.0 0.00 0.00 0.00 70 1019.3
20260906203510 72 146 2.0 3.0 0.00 0.00 0.00 69 1019.3
20260906203009 73 187 1.0 1.0 0.00 0.00 0.00 69 1019.3
20260906202501 75 71 1.0 3.0 0.00 0.00 0.00 67 1019.3
20260906201955 74 138 2.0 3.0 0.00 0.00 0.00 67 1019.3
20260906201450 74 163 0.0 1.0 0.00 0.00 0.00 69 1018.9
20260906200950 74 308 3.0 5.0 0.00 0.00 0.00 67 1018.9
20260906200447 76 252 2.0 3.0 0.00 0.00 0.00 66 1019.3
20260906195946 75 146 3.0 6.0 0.00 0.00 0.00 65 1018.9
20260906195443 75 181 2.0 2.0 0.00 0.00 0.00 65 1018.9
20260906194939 76 170 2.0 3.0 0.00 0.00 0.00 64 1018.9
20260906194434 78 204 0.0 1.0 0.00 0.00 0.00 64 1018.9
20260906193935 77 162 0.0 0.0 0.00 0.00 0.00 62 1018.9
20260906193431 78 189 1.0 1.0 0.00 0.00 0.00 61 1018.9
20260906192926 77 169 1.0 1.0 0.00 0.00 0.00 60 1018.9
20260906192426 77 285 3.0 5.0 0.00 0.00 0.00 57 1018.9
20260906191925 77 173 1.0 1.0 0.00 0.00 0.00 58 1018.9
20260906191421 77 144 1.0 2.0 0.00 0.00 0.00 59 1019.3
20260906190919 77 172 1.0 2.0 0.00 0.00 0.00 57 1018.9
20260906190418 78 188 1.0 2.0 0.00 0.00 0.00 58 1018.9
20260906185913 80 89 3.0 3.0 0.00 0.00 0.00 58 1018.9
20260906185412 78 144 0.0 1.0 0.00 0.00 0.00 58 1018.9
20260906184912 78 179 1.0 1.0 0.00 0.00 0.00 54 1019.3
20260906184407 78 172 1.0 1.0 0.00 0.00 0.00 57 1018.9
20260906183903 77 151 0.0 1.0 0.00 0.00 0.00 57 1018.9
20260906183359 78 181 1.0 1.0 0.00 0.00 0.00 61 1018.9
20260906182859 78 165 0.0 0.0 0.00 0.00 0.00 56 1018.9
20260906182354 78 197 1.0 2.0 0.00 0.00 0.00 59 1019.3
20260906181849 77 164 3.0 5.0 0.00 0.00 0.00 56 1018.9
20260906181345 75 123 1.0 1.0 0.00 0.00 0.00 59 1019.3
20260906180841 75 141 3.0 5.0 0.00 0.00 0.00 59 1018.9
20260906180330 74 150 0.0 1.0 0.00 0.00 0.00 62 1019.3
20260906175828 76 166 0.0 1.0 0.00 0.00 0.00 66 1019.3
20260906175323 78 143 0.0 0.0 0.00 0.00 0.00 63 1019.3
20260906174822 76 200 1.0 1.0 0.00 0.00 0.00 65 1019.3
20260906174322 77 252 4.0 5.0 0.00 0.00 0.00 62 1019.3
20260906173817 78 164 0.0 2.0 0.00 0.00 0.00 62 1019.3
20260906173313 76 156 0.0 0.0 0.00 0.00 0.00 59 1019.3
20260906172811 77 187 1.0 1.0 0.00 0.00 0.00 60 1019.3
20260906172307 77 25 2.0 3.0 0.00 0.00 0.00 63 1019.3
20260906171802 77 170 1.0 1.0 0.00 0.00 0.00 65 1019.3
20260906171257 75 180 1.0 2.0 0.00 0.00 0.00 67 1019.3
20260906170753 75 160 1.0 2.0 0.00 0.00 0.00 66 1019.3
20260906170249 73 52 2.0 5.0 0.00 0.00 0.00 69 1019.3
20260906165744 75 247 0.0 1.0 0.00 0.00 0.00 67 1019.6
20260906165244 74 132 1.0 1.0 0.00 0.00 0.00 71 1019.6
20260906164743 72 158 2.0 3.0 0.00 0.00 0.00 71 1019.3
20260906164238 75 154 0.0 0.0 0.00 0.00 0.00 70 1019.6
20260906163734 77 277 3.0 5.0 0.00 0.00 0.00 66 1019.3
20260906163230 77 152 0.0 1.0 0.00 0.00 0.00 65 1019.6
20260906162727 77 170 1.0 2.0 0.00 0.00 0.00 64 1019.6
20260906162221 78 158 0.0 1.0 0.00 0.00 0.00 67 1019.3
20260906161716 76 167 2.0 3.0 0.00 0.00 0.00 65 1019.6
20260906161215 76 112 1.0 2.0 0.00 0.00 0.00 68 1019.6
20260906160715 76 141 0.0 0.0 0.00 0.00 0.00 66 1019.6
20260906160214 75 130 1.0 2.0 0.00 0.00 0.00 65 1019.6
20260906155706 74 8 4.0 6.0 0.00 0.00 0.00 66 1019.6
20260906155202 72 125 1.0 1.0 0.00 0.00 0.00 69 1019.6
20260906154657 74 111 0.0 1.0 0.00 0.00 0.00 70 1020.0
20260906154156 74 61 1.0 2.0 0.00 0.00 0.00 67 1020.0
20260906153655 76 186 1.0 1.0 0.00 0.00 0.00 68 1020.0
20260906153150 74 276 3.0 5.0 0.00 0.00 0.00 66 1020.0
20260906152645 75 122 0.0 1.0 0.00 0.00 0.00 68 1019.6
20260906152145 74 155 0.0 0.0 0.00 0.00 0.00 71 1020.0
20260906151639 75 148 0.0 0.0 0.00 0.00 0.00 68 1020.0
20260906151136 74 152 0.0 0.0 0.00 0.00 0.00 71 1020.0
20260906150631 73 113 1.0 2.0 0.00 0.00 0.00 70 1020.3
20260906150126 74 141 1.0 1.0 0.00 0.00 0.00 71 1020.0
20260906145625 74 202 1.0 2.0 0.00 0.00 0.00 73 1020.0
20260906145119 73 278 1.0 1.0 0.00 0.00 0.00 72 1020.0
20260906144614 72 158 0.0 0.0 0.00 0.00 0.00 72 1020.0
20260906144110 71 128 1.0 2.0 0.00 0.00 0.00 71 1020.0
20260906143609 71 154 0.0 0.0 0.00 0.00 0.00 72 1020.0
20260906143106 71 252 3.0 5.0 0.00 0.00 0.00 70 1019.6
20260906142605 71 152 0.0 0.0 0.00 0.00 0.00 75 1019.6
20260906142106 71 82 0.0 0.0 0.00 0.00 0.00 73 1019.3
20260906141605 71 194 2.0 2.0 0.00 0.00 0.00 75 1019.6
20260906141100 71 316 1.0 3.0 0.00 0.00 0.00 75 1019.6
20260906140559 69 145 0.0 0.0 0.00 0.00 0.00 79 1019.6
20260906140054 69 155 1.0 2.0 0.00 0.00 0.00 80 1019.6
20260906135551 69 141 0.0 0.0 0.00 0.00 0.00 79 1020.0
20260906135047 68 154 0.0 0.0 0.00 0.00 0.00 80 1019.6
20260906134542 68 127 1.0 1.0 0.00 0.00 0.00 83 1019.6
20260906134037 67 149 0.0 0.0 0.00 0.00 0.00 84 1019.6
20260906133533 66 170 2.0 3.0 0.00 0.00 0.00 86 1019.6
20260906133028 66 145 2.0 2.0 0.00 0.00 0.00 87 1019.6
20260906132523 64 155 0.0 0.0 0.00 0.00 0.00 90 1019.6
20260906132019 63 159 0.0 0.0 0.00 0.00 0.00 93 1019.6
20260906131514 63 148 1.0 1.0 0.00 0.00 0.00 93 1019.6
20260906131010 62 161 0.0 0.0 0.00 0.00 0.00 95 1019.6
20260906130504 62 150 0.0 0.0 0.00 0.00 0.00 96 1019.6
20260906130004 62 146 0.0 0.0 0.00 0.00 0.00 97 1019.6
20260906125501 61 139 0.0 1.0 0.00 0.00 0.00 97 1019.6
20260906125001 61 159 0.0 0.0 0.00 0.00 0.00 97 1019.6
20260906124456 61 150 0.0 0.0 0.00 0.00 0.00 98 1019.6
20260906123950 61 155 0.0 0.0 0.00 0.00 0.00 98 1019.6
20260906123444 61 148 0.0 0.0 0.00 0.00 0.00 98 1019.6
20260906122938 61 159 0.0 0.0 0.00 0.00 0.00 98 1019.6
20260906122433 61 159 0.0 0.0 0.00 0.00 0.00 99 1019.3
20260906121930 61 120 0.0 0.0 0.00 0.00 0.00 99 1019.6
20260906121426 60 152 0.0 0.0 0.00 0.00 0.00 99 1019.6
20260906120923 60 150 0.0 0.0 0.00 0.00 0.00 99 1019.6
20260906120418 60 135 0.0 0.0 0.00 0.00 0.00 99 1019.6
20260906115914 61 157 0.0 0.0 0.00 0.00 0.00 99 1019.3
20260906115409 60 153 0.0 0.0 0.00 0.00 0.00 99 1019.3
20260906114908 60 154 0.0 0.0 0.00 0.00 0.00 99 1019.3
20260906114403 59 145 0.0 0.0 0.00 0.00 0.00 99 1019.3
20260906113859 59 190 1.0 1.0 0.00 0.00 0.00 99 1018.9
20260906113358 58 165 0.0 0.0 0.00 0.00 0.00 99 1019.3
20260906112854 58 162 0.0 0.0 0.00 0.00 0.00 99 1019.3
20260906112349 58 148 1.0 1.0 0.00 0.00 0.00 99 1018.9
20260906111844 58 161 0.0 0.0 0.00 0.00 0.00 99 1018.9
20260906111343 58 209 0.0 0.0 0.00 0.00 0.00 99 1018.6
20260906110833 58 159 0.0 0.0 0.00 0.00 0.00 99 1018.9
20260906110329 58 158 0.0 0.0 0.00 0.00 0.00 99 1018.9
20260906105827 58 162 0.0 0.0 0.00 0.00 0.00 99 1018.9
20260906105323 58 162 0.0 0.0 0.00 0.00 0.00 99 1018.6
20260906104819 58 162 0.0 0.0 0.00 0.00 0.00 99 1018.3
20260906104318 58 162 0.0 0.0 0.00 0.00 0.00 99 1018.6
20260906103816 58 164 0.0 0.0 0.00 0.00 0.00 99 1018.3
20260906103314 58 161 0.0 0.0 0.00 0.00 0.00 99 1018.3
20260906102811 58 157 0.0 0.0 0.00 0.00 0.00 99 1018.3
20260906102309 59 162 0.0 0.0 0.00 0.00 0.00 99 1017.9
20260906101806 59 159 0.0 0.0 0.00 0.00 0.00 99 1018.3
20260906101306 58 161 0.0 0.0 0.00 0.00 0.00 99 1017.9
20260906100801 58 155 0.0 0.0 0.00 0.00 0.00 99 1017.9
20260906100300 58 159 0.0 0.0 0.00 0.00 0.00 99 1017.9
20260906095756 58 162 0.0 0.0 0.00 0.00 0.00 99 1017.9
20260906095251 58 161 0.0 0.0 0.00 0.00 0.00 99 1017.9
20260906094744 59 157 0.0 0.0 0.00 0.00 0.00 99 1017.9
20260906094239 59 159 0.0 0.0 0.00 0.00 0.00 99 1017.6
20260906093736 59 154 0.0 0.0 0.00 0.00 0.00 99 1017.9
20260906093231 59 157 0.0 0.0 0.00 0.00 0.00 99 1017.6
20260906092726 59 158 0.0 0.0 0.00 0.00 0.00 99 1017.6
20260906092220 58 159 0.0 0.0 0.00 0.00 0.00 99 1017.6
20260906091717 58 161 0.0 0.0 0.00 0.00 0.00 99 1017.3
20260906091212 58 159 0.0 0.0 0.00 0.00 0.00 99 1017.3
20260906090708 58 163 0.0 0.0 0.00 0.00 0.00 99 1017.3
20260906090207 58 160 0.0 0.0 0.00 0.00 0.00 99 1017.3
20260906085707 58 159 0.0 0.0 0.00 0.00 0.00 99 1016.9
20260906085206 59 159 0.0 0.0 0.00 0.00 0.00 99 1016.9
20260906084701 59 161 0.0 0.0 0.00 0.00 0.00 99 1017.3
20260906084200 59 159 0.0 0.0 0.00 0.00 0.00 99 1016.9
20260906083655 59 158 0.0 0.0 0.00 0.00 0.00 99 1016.6
20260906083151 59 158 0.0 0.0 0.00 0.00 0.00 99 1016.9
20260906082646 60 160 0.0 0.0 0.00 0.00 0.00 99 1016.6
20260906082141 60 162 0.0 0.0 0.00 0.00 0.00 99 1016.9
20260906081638 60 159 0.0 0.0 0.00 0.00 0.00 99 1016.9
20260906081132 60 155 0.0 0.0 0.00 0.00 0.00 99 1016.9
20260906080629 60 164 0.0 0.0 0.00 0.00 0.00 99 1016.6
20260906080124 60 161 0.0 0.0 0.00 0.00 0.00 99 1016.6
20260906075618 60 162 0.0 0.0 0.00 0.00 0.00 99 1016.6
20260906075113 61 161 0.0 0.0 0.00 0.00 0.00 99 1016.6
20260906074608 61 165 0.0 0.0 0.00 0.00 0.00 99 1016.6
20260906074107 60 161 0.0 0.0 0.00 0.00 0.00 99 1016.6
20260906073602 60 158 0.0 0.0 0.00 0.00 0.00 99 1016.6
20260906073058 60 156 0.0 0.0 0.00 0.00 0.00 99 1016.6
20260906072552 61 156 0.0 0.0 0.00 0.00 0.00 99 1016.6
20260906072043 61 155 0.0 0.0 0.00 0.00 0.00 99 1016.6
20260906071539 61 159 0.0 0.0 0.00 0.00 0.00 99 1016.6
20260906071034 61 158 0.0 0.0 0.00 0.00 0.00 99 1016.6
20260906070531 62 162 0.0 0.0 0.00 0.00 0.00 99 1016.6
20260906070026 62 161 0.0 0.0 0.00 0.00 0.00 99 1016.6
20260906065525 62 162 0.0 0.0 0.00 0.00 0.00 99 1016.6
20260906065021 62 162 0.0 0.0 0.00 0.00 0.00 99 1016.2
20260906064517 62 162 0.0 0.0 0.00 0.00 0.00 99 1016.6
20260906064016 62 156 0.0 0.0 0.00 0.00 0.00 99 1016.2
20260906063512 62 161 0.0 0.0 0.00 0.00 0.00 99 1016.6
20260906063008 63 161 0.0 0.0 0.00 0.00 0.00 99 1016.6
20260906062502 63 164 0.0 0.0 0.00 0.00 0.00 99 1016.6
20260906061957 64 180 0.0 0.0 0.00 0.00 0.00 99 1016.2
20260906061453 64 166 0.0 0.0 0.00 0.00 0.00 99 1016.6
20260906060947 64 163 0.0 0.0 0.00 0.00 0.00 99 1016.6
20260906060444 64 167 0.0 0.0 0.00 0.00 0.00 99 1016.6
20260906055940 64 164 0.0 0.0 0.00 0.00 0.00 99 1016.6
20260906055436 64 163 0.0 0.0 0.00 0.00 0.00 99 1016.9
20260906054931 64 163 0.0 0.0 0.00 0.00 0.00 99 1016.6
20260906054426 64 164 0.0 0.0 0.00 0.00 0.00 99 1016.9
20260906053922 64 170 0.0 0.0 0.00 0.00 0.00 99 1016.9
20260906053418 64 165 0.0 0.0 0.00 0.00 0.00 99 1016.6
20260906052913 64 184 0.0 0.0 0.00 0.00 0.00 99 1016.9
20260906052410 64 161 0.0 0.0 0.00 0.00 0.00 99 1016.6
20260906051906 64 159 0.0 0.0 0.00 0.00 0.00 99 1016.6
20260906051401 64 163 0.0 0.0 0.00 0.00 0.00 99 1016.6
20260906050856 64 168 0.0 0.0 0.00 0.00 0.00 99 1016.6
20260906050350 64 163 0.0 0.0 0.00 0.00 0.00 99 1016.9
20260906045849 64 161 0.0 0.0 0.00 0.00 0.00 99 1016.6
20260906045344 64 163 0.0 0.0 0.00 0.00 0.00 99 1016.6
20260906044840 64 161 0.0 0.0 0.00 0.00 0.00 99 1016.6
20260906044335 64 161 0.0 0.0 0.00 0.00 0.00 99 1016.6
20260906043831 64 161 0.0 0.0 0.00 0.00 0.00 99 1016.6
20260906043326 64 161 0.0 0.0 0.00 0.00 0.00 99 1016.6
20260906042821 64 161 0.0 0.0 0.00 0.00 0.00 99 1016.9
20260906042319 65 163 0.0 0.0 0.00 0.00 0.00 99 1016.6
20260906041815 65 161 0.0 0.0 0.00 0.00 0.00 99 1016.9
20260906041310 65 161 0.0 0.0 0.00 0.00 0.00 98 1016.6
20260906040805 65 160 0.0 0.0 0.00 0.00 0.00 98 1016.9
20260906040300 65 163 0.0 0.0 0.00 0.00 0.00 98 1016.6
20260906035756 65 163 0.0 0.0 0.00 0.00 0.00 99 1016.9
20260906035251 64 160 0.0 0.0 0.00 0.00 0.00 99 1016.9
20260906034746 64 163 0.0 0.0 0.00 0.00 0.00 99 1016.6
20260906034241 64 165 0.0 0.0 0.00 0.00 0.00 99 1016.6
20260906033737 64 164 0.0 0.0 0.00 0.00 0.00 99 1016.6
20260906033236 64 158 0.0 0.0 0.00 0.00 0.00 99 1016.6
20260906032733 64 164 0.0 0.0 0.00 0.00 0.00 99 1016.6
20260906032232 64 164 0.0 0.0 0.00 0.00 0.00 99 1016.6
20260906031727 64 158 0.0 0.0 0.00 0.00 0.00 99 1016.6
20260906031223 64 161 0.0 0.0 0.00 0.00 0.00 99 1016.6
20260906030723 64 165 0.0 0.0 0.00 0.00 0.00 99 1016.6
20260906030218 64 139 0.0 0.0 0.00 0.00 0.00 99 1016.2
20260906025717 64 161 0.0 0.0 0.00 0.00 0.00 99 1016.6
20260906025212 64 162 0.0 0.0 0.00 0.00 0.00 99 1016.2
20260906024711 64 162 0.0 0.0 0.00 0.00 0.00 99 1016.2
20260906024210 64 162 0.0 0.0 0.00 0.00 0.00 99 1016.2
20260906023706 63 162 0.0 0.0 0.00 0.00 0.00 99 1016.2
20260906023201 63 164 0.0 0.0 0.00 0.00 0.00 99 1016.2
20260906022656 64 162 0.0 0.0 0.00 0.00 0.00 99 1016.2
20260906022152 64 162 0.0 0.0 0.00 0.00 0.00 98 1016.6
20260906021647 64 164 0.0 0.0 0.00 0.00 0.00 98 1016.2
20260906021145 64 164 0.0 0.0 0.00 0.00 0.00 97 1016.6
20260906020641 65 164 0.0 0.0 0.00 0.00 0.00 97 1016.2
20260906020136 65 165 0.0 0.0 0.00 0.00 0.00 97 1016.2
20260906015630 65 158 0.0 0.0 0.00 0.00 0.00 96 1016.2
20260906015128 66 161 0.0 0.0 0.00 0.00 0.00 95 1016.2
20260906014623 66 161 0.0 0.0 0.00 0.00 0.00 95 1016.2
20260906014120 66 161 0.0 0.0 0.00 0.00 0.00 94 1016.2
20260906013614 66 161 0.0 0.0 0.00 0.00 0.00 93 1016.2
20260906013110 66 176 1.0 1.0 0.00 0.00 0.00 93 1015.9
20260906012604 67 162 0.0 0.0 0.00 0.00 0.00 93 1016.2
20260906012059 67 161 0.0 0.0 0.00 0.00 0.00 92 1016.2
20260906011555 67 161 0.0 0.0 0.00 0.00 0.00 92 1015.9
20260906011054 67 159 0.0 0.0 0.00 0.00 0.00 92 1016.2
20260906010550 67 168 0.0 1.0 0.00 0.00 0.00 92 1015.9
20260906010046 67 161 0.0 0.0 0.00 0.00 0.00 92 1015.9
20260906005545 67 133 1.0 2.0 0.00 0.00 0.00 93 1015.9
20260906005044 67 160 0.0 0.0 0.00 0.00 0.00 93 1016.2
20260906004539 67 164 0.0 0.0 0.00 0.00 0.00 92 1015.9
20260906004034 67 164 0.0 0.0 0.00 0.00 0.00 92 1015.6
20260906003528 67 159 0.0 0.0 0.00 0.00 0.00 92 1015.9
20260906003024 67 178 0.0 1.0 0.00 0.00 0.00 91 1015.6
20260906002519 67 178 0.0 1.0 0.00 0.00 0.00 91 1015.9
20260906002014 67 294 3.0 3.0 0.00 0.00 0.00 91 1016.2
20260906001509 67 192 0.0 1.0 0.00 0.00 0.00 91 1015.6
20260906001004 68 148 1.0 1.0 0.00 0.00 0.00 90 1015.9
20260906000459 68 148 1.0 1.0 0.00 0.00 0.00 90 1015.6
20260905235954 68 282 1.0 2.0 0.00 0.00 0.00 90 1015.9
20260905235453 68 168 1.0 1.0 0.00 0.00 0.00 89 1015.9
20260905234948 68 222 1.0 2.0 0.00 0.00 0.00 89 1015.6
20260905234445 69 182 2.0 2.0 0.00 0.00 0.00 88 1015.9
20260905233944 69 236 1.0 1.0 0.00 0.00 0.00 87 1015.9
20260905233440 69 152 1.0 2.0 0.00 0.00 0.00 86 1015.9
20260905232938 69 261 3.0 3.0 0.00 0.00 0.00 86 1015.9
20260905232435 70 276 3.0 5.0 0.00 0.00 0.00 85 1015.6
20260905231930 70 176 1.0 2.0 0.00 0.00 0.00 85 1015.6
20260905231426 70 174 1.0 2.0 0.00 0.00 0.00 84 1015.6
20260905230922 70 149 1.0 1.0 0.00 0.00 0.00 84 1015.6
20260905230420 70 224 1.0 1.0 0.00 0.00 0.00 84 1015.6
20260905225914 71 318 2.0 3.0 0.00 0.00 0.00 83 1015.2
20260905225409 71 276 3.0 5.0 0.00 0.00 0.00 83 1015.6
20260905224904 71 89 3.0 3.0 0.00 0.00 0.00 83 1015.6
20260905224359 71 124 2.0 3.0 0.00 0.00 0.00 82 1015.6
20260905223853 71 168 1.0 1.0 0.00 0.00 0.00 82 1015.9
20260905223352 71 161 0.0 1.0 0.00 0.00 0.00 82 1015.9
20260905222851 71 202 3.0 5.0 0.00 0.00 0.00 81 1015.6
20260905222350 72 198 3.0 5.0 0.00 0.00 0.00 81 1015.6
20260905221846 72 296 2.0 2.0 0.00 0.00 0.00 81 1015.6
20260905221343 72 201 1.0 1.0 0.00 0.00 0.00 82 1015.6
20260905220838 72 126 2.0 3.0 0.00 0.00 0.00 80 1015.9
20260905220335 72 184 2.0 3.0 0.00 0.00 0.00 80 1015.6
20260905215833 72 190 1.0 2.0 0.00 0.00 0.00 80 1015.6
20260905215324 72 174 3.0 3.0 0.00 0.00 0.00 80 1015.2
20260905214821 72 162 3.0 5.0 0.00 0.00 0.00 80 1015.2
20260905214316 72 150 1.0 2.0 0.00 0.00 0.00 79 1015.2
20260905213816 72 195 2.0 3.0 0.00 0.00 0.00 80 1015.2
20260905213313 73 284 5.0 7.0 0.00 0.00 0.00 79 1014.9
20260905212812 73 252 0.0 1.0 0.00 0.00 0.00 79 1014.9
20260905212312 73 303 3.0 3.0 0.00 0.00 0.00 78 1014.9
20260905211807 73 244 2.0 2.0 0.00 0.00 0.00 78 1014.9
20260905211302 73 293 3.0 3.0 0.00 0.00 0.00 77 1014.9
20260905210759 73 173 0.0 0.0 0.00 0.00 0.00 76 1014.9
20260905210253 73 319 1.0 2.0 0.00 0.00 0.00 77 1014.9
20260905205751 74 153 0.0 0.0 0.00 0.00 0.00 76 1014.9